Location: Antoign�
(47.0844°N, 0.1131°W)
Time: 01:45:30
(UTC+00:00)

Cosmos 1703 Rocket - Pass Details

Date: 03 March 2021
Orbit: 604 x 634 km, 82.5° (Epoch: 16 April)

Event Time Altitude Azimuth Distance (km) Brightness Sun altitude
Rises 18:47:18 0° 357° (N) 2,914 7.1 -10.7°
Reaches altitude 10° 18:49:42 10° 5° (N) 1,997 6.1 -11.1°
Maximum altitude 18:53:49 38° 74° (ENE) 947 4.0 -11.8°
Drops below altitude 10° 18:57:54 10° 144° (SE) 1,965 5.8 -12.5°
Enters shadow 18:59:30 - 150° (SSE) 2,582 6.4 -12.8°
